Weather History for Spirit of St Louis, MO

Change the Weather History Date:

Wednesday, November 7, 2012

  Actual Average Record
Temperature  
Mean Temperature 41 °F -  
Max Temperature 48 °F 55 °F 78 °F (1999)
Min Temperature 32 °F 35 °F 21 °F (2007)
Degree Days  
Heating Degree Days 24    
Moisture  
Dew Point 36 °F    
Average Humidity 73    
Maximum Humidity 93    
Minimum Humidity 63    
Precipitation  
Precipitation 0.00 in - - ()
Sea Level Pressure  
Sea Level Pressure 30.09 in    
Wind  
Wind Speed 7 mph (NW)    
Max Wind Speed 14 mph    
Max Gust Speed -    
Visibility 10 miles    
Events Rain    
Averages and records for this station are not official NWS values.
T = Trace of Precipitation, MM = Missing Value Source: NWS Daily Summary

Daily Weather History Graph

Daily Weather History Graph

Search for Another Location

Airport:

Trip Planner

Search our weather history database for the weather conditions in past years. The results will help you decide how hot, cold, wet, or windy it might be!

Date:

Astronomy

Nov. 07, 2012 Rise Set
Actual Time 6:36 AM CST 4:55 PM CST
Civil Twilight 6:08 AM CST 5:23 PM CST
Nautical Twilight 5:36 AM CST 5:55 PM CST
Astronomical Twilight 5:05 AM CST 6:26 PM CST
Moon No Moon Rise 1:00 PM CST (11/7)
Length of Visible Light 11h 15m
Length of Day
10h 19m
Last Quarter, 43% of the Moon is Illuminated
Nov 7
Last Quarter
Nov 13
New
Nov 20
First Quarter
Nov 28
Full
Dec 6
Last Quarter

Hourly Weather History & Observations

Time (CST) Temp. Windchill Dew Point Humidity Pressure Visibility Wind Dir Wind Speed Gust Speed Precip Events Conditions
12:54 AM 46.9 °F - 39.0 °F 74% 29.96 in 10.0 mi NW 6.9 mph - N/A   Overcast
1:54 AM 46.9 °F - 37.9 °F 71% 29.96 in 10.0 mi WNW 8.1 mph - N/A   Overcast
2:54 AM 46.0 °F 41.9 °F 37.0 °F 71% 29.96 in 10.0 mi WNW 8.1 mph - N/A   Overcast
3:54 AM 46.0 °F 43.1 °F 36.0 °F 68% 29.96 in 10.0 mi West 5.8 mph - N/A   Overcast
4:54 AM 46.0 °F 43.1 °F 36.0 °F 68% 29.97 in 10.0 mi WNW 5.8 mph - N/A   Overcast
5:54 AM 46.0 °F 41.4 °F 37.0 °F 71% 29.99 in 10.0 mi NNW 9.2 mph - 0.00 in Rain Light Rain
6:54 AM 45.0 °F 41.2 °F 37.0 °F 74% 30.01 in 10.0 mi NW 6.9 mph - N/A   Overcast
7:54 AM 46.0 °F 40.2 °F 36.0 °F 68% 30.04 in 10.0 mi NNW 12.7 mph - N/A   Mostly Cloudy
8:52 AM 46.4 °F 41.1 °F 35.6 °F 66% 30.05 in 10.0 mi NNW 11.5 mph - N/A   Mostly Cloudy
8:54 AM 46.9 °F - 36.0 °F 66% 30.06 in 10.0 mi North 12.7 mph - N/A   Mostly Cloudy
9:54 AM 46.0 °F 39.9 °F 36.0 °F 68% 30.09 in 10.0 mi NNW 13.8 mph - N/A   Overcast
10:54 AM 46.9 °F - 37.0 °F 68% 30.11 in 10.0 mi North 10.4 mph - N/A   Overcast
11:54 AM 46.9 °F - 37.0 °F 68% 30.11 in 10.0 mi North 6.9 mph - N/A   Overcast
12:54 PM 48.9 °F - 37.9 °F 66% 30.11 in 10.0 mi NW 11.5 mph - N/A   Overcast
1:54 PM 48.0 °F - 37.0 °F 66% 30.11 in 10.0 mi NW 9.2 mph - N/A   Overcast
2:54 PM 48.0 °F - 37.0 °F 66% 30.12 in 10.0 mi North 5.8 mph - N/A   Overcast
3:50 PM 46.4 °F 42.9 °F 37.4 °F 71% 30.12 in 10.0 mi NW 6.9 mph - N/A   Mostly Cloudy
3:54 PM 46.9 °F - 37.0 °F 68% 30.14 in 10.0 mi NW 5.8 mph - N/A   Mostly Cloudy
4:54 PM 46.9 °F - 35.1 °F 63% 30.14 in 10.0 mi North 3.5 mph - N/A   Mostly Cloudy
5:54 PM 44.1 °F - 36.0 °F 73% 30.17 in 10.0 mi Calm Calm - N/A   Mostly Cloudy
6:54 PM 44.1 °F - 37.0 °F 76% 30.17 in 10.0 mi Calm Calm - N/A   Overcast
7:54 PM 43.0 °F - 37.9 °F 82% 30.18 in 10.0 mi Calm Calm - N/A   Overcast
8:54 PM 37.9 °F - 34.0 °F 86% 30.19 in 10.0 mi Calm Calm - N/A   Clear
9:54 PM 36.0 °F - 34.0 °F 93% 30.20 in 9.0 mi Calm Calm - N/A   Clear
10:54 PM 34.0 °F - 32.0 °F 92% 30.21 in 10.0 mi Calm Calm - N/A   Clear
11:54 PM 32.0 °F - 30.0 °F 92% 30.21 in 6.0 mi Calm Calm - N/A   Clear